Location: Peach Mountain Observatory
(42.3967°N, 83.9367°W)
Time: 08:11:55
(UTC-05:00)

deb Explorer IX - Pass Details

Date: 31 January 2020
Orbit: 549 x 1099 km, 38.8° (Epoch: 24 February)

Event Time Altitude Azimuth Distance (km) Brightness Sun altitude
Rises 18:55:58 0° 219° (SW) 3,293 ? -12.8°
Reaches altitude 10° 18:58:36 10° 208° (SSW) 2,457 ? -13.3°
Maximum altitude 19:03:38 29° 149° (SSE) 1,616 ? -14.2°
Enters shadow 19:07:18 18° 104° (ESE) 2,210 ? -14.8°
